Weather History for Chignik, AK

Change the Weather History Date:

Sunday, November 25, 2012

  Actual Average Record
Temperature  
Mean Temperature 27 °F -  
Max Temperature 30 °F 36 °F 44 °F (2002)
Min Temperature 24 °F 29 °F 19 °F (2005)
Degree Days  
Heating Degree Days 38    
Moisture  
Dew Point 18 °F    
Average Humidity 69    
Maximum Humidity 75    
Minimum Humidity 64    
Precipitation  
Precipitation 0.00 in - - ()
Sea Level Pressure  
Sea Level Pressure 30.03 in    
Wind  
Wind Speed 7 mph (WSW)    
Max Wind Speed 12 mph    
Max Gust Speed -    
Visibility 10 miles    
Events      
Averages and records for this station are not official NWS values.
T = Trace of Precipitation, MM = Missing Value Source: NWS Daily Summary

Daily Weather History Graph

Daily Weather History Graph

Search for Another Location

Airport:

Trip Planner

Search our weather history database for the weather conditions in past years. The results will help you decide how hot, cold, wet, or windy it might be!

Date:

Astronomy

Nov. 25, 2012 Rise Set
Actual Time 9:32 AM AKST 5:08 PM AKST
Civil Twilight 8:47 AM AKST 5:53 PM AKST
Nautical Twilight 8:00 AM AKST 6:40 PM AKST
Astronomical Twilight 7:15 AM AKST 7:25 PM AKST
Moon 3:49 PM AKST (11/25) 6:36 AM AKST (11/25)
Length of Visible Light 9h 05m
Length of Day
7h 35m
Waxing Gibbous, 93% of the Moon is Illuminated
Nov 25
Waxing Gibbous
Nov 28
Full
Dec 6
Last Quarter
Dec 12
New
Dec 19
First Quarter

Hourly Weather History & Observations

Time (AKST) Temp. Windchill Dew Point Humidity Pressure Visibility Wind Dir Wind Speed Gust Speed Precip Events Conditions
12:16 AM 24.8 °F 15.3 °F 15.8 °F 69% 29.93 in 10.0 mi West 9.2 mph - N/A   Overcast
12:36 AM 24.8 °F 16.1 °F 15.8 °F 69% 29.93 in 10.0 mi West 8.1 mph - N/A   Scattered Clouds
12:56 AM 24.8 °F 17.9 °F 15.8 °F 69% 29.94 in 10.0 mi WSW 5.8 mph - N/A   Scattered Clouds
1:16 AM 24.8 °F 16.1 °F 15.8 °F 69% 29.94 in 10.0 mi West 8.1 mph - N/A   Mostly Cloudy
1:36 AM 24.8 °F 16.1 °F 15.8 °F 69% 29.94 in 10.0 mi West 8.1 mph - N/A   Scattered Clouds
1:56 AM 24.8 °F 15.3 °F 15.8 °F 69% 29.94 in 10.0 mi West 9.2 mph - N/A   Partly Cloudy
2:16 AM 24.8 °F 17.9 °F 15.8 °F 69% 29.94 in 10.0 mi West 5.8 mph - N/A   Scattered Clouds
2:36 AM 24.8 °F 14.6 °F 15.8 °F 69% 29.94 in 10.0 mi West 10.4 mph - N/A   Partly Cloudy
2:56 AM 24.8 °F 14.0 °F 15.8 °F 69% 29.94 in 10.0 mi West 11.5 mph - N/A   Clear
3:16 AM 24.8 °F 14.6 °F 15.8 °F 69% 29.95 in 10.0 mi WSW 10.4 mph - N/A   Clear
3:36 AM 24.8 °F 16.1 °F 15.8 °F 69% 29.95 in 10.0 mi West 8.1 mph - N/A   Clear
3:56 AM 26.6 °F 16.8 °F 15.8 °F 64% 29.95 in 10.0 mi WSW 10.4 mph - N/A   Clear
4:16 AM 24.8 °F 16.1 °F 15.8 °F 69% 29.95 in 10.0 mi West 8.1 mph - N/A   Clear
4:36 AM 24.8 °F 16.1 °F 15.8 °F 69% 29.95 in 10.0 mi West 8.1 mph - N/A   Clear
4:56 AM 24.8 °F 15.3 °F 15.8 °F 69% 29.96 in 10.0 mi West 9.2 mph - N/A   Clear
5:16 AM 24.8 °F 14.6 °F 15.8 °F 69% 29.96 in 10.0 mi West 10.4 mph - N/A   Clear
5:36 AM 24.8 °F 15.3 °F 15.8 °F 69% 29.96 in 10.0 mi West 9.2 mph - N/A   Scattered Clouds
5:56 AM 24.8 °F 16.9 °F 15.8 °F 69% 29.97 in 10.0 mi West 6.9 mph - N/A   Clear
6:16 AM 24.8 °F 16.9 °F 15.8 °F 69% 29.97 in 10.0 mi West 6.9 mph - N/A   Clear
6:36 AM 24.8 °F 16.9 °F 15.8 °F 69% 29.98 in 10.0 mi WSW 6.9 mph - N/A   Mostly Cloudy
6:56 AM 24.8 °F 16.1 °F 15.8 °F 69% 29.98 in 10.0 mi West 8.1 mph - N/A   Overcast
7:16 AM 24.8 °F 16.9 °F 15.8 °F 69% 29.99 in 10.0 mi West 6.9 mph - N/A   Overcast
7:36 AM 24.8 °F 16.9 °F 15.8 °F 69% 29.99 in 10.0 mi WSW 6.9 mph - N/A   Overcast
7:56 AM 24.8 °F 16.1 °F 17.6 °F 74% 29.98 in 10.0 mi WSW 8.1 mph - N/A   Overcast
8:16 AM 26.6 °F 19.1 °F 15.8 °F 64% 29.98 in 10.0 mi WSW 6.9 mph - N/A   Overcast
8:36 AM 26.6 °F 18.2 °F 15.8 °F 64% 29.99 in 10.0 mi WSW 8.1 mph - N/A   Overcast
8:56 AM 26.6 °F 16.2 °F 15.8 °F 64% 30.00 in 10.0 mi WSW 11.5 mph - N/A   Overcast
9:16 AM 26.6 °F 21.2 °F 15.8 °F 64% 30.01 in 10.0 mi WSW 4.6 mph - N/A   Overcast
9:36 AM 26.6 °F 21.2 °F 17.6 °F 69% 30.01 in 10.0 mi SW 4.6 mph - N/A   Overcast
9:56 AM 26.6 °F - 17.6 °F 69% 30.01 in 10.0 mi Calm Calm - N/A   Overcast
10:16 AM 26.6 °F 22.6 °F 17.6 °F 69% 30.02 in 10.0 mi SW 3.5 mph - N/A   Overcast
10:36 AM 28.4 °F - 17.6 °F 64% 30.03 in 10.0 mi Calm Calm - N/A   Overcast
10:56 AM 28.4 °F 23.3 °F 17.6 °F 64% 30.03 in 10.0 mi West 4.6 mph - N/A   Overcast
11:16 AM 28.4 °F - 17.6 °F 64% 30.03 in 10.0 mi Calm Calm - N/A   Overcast
11:36 AM 28.4 °F 23.3 °F 19.4 °F 69% 30.03 in 10.0 mi WSW 4.6 mph - N/A   Overcast
11:56 AM 28.4 °F 23.3 °F 19.4 °F 69% 30.04 in 10.0 mi West 4.6 mph - N/A   Overcast
12:16 PM 28.4 °F 23.3 °F 19.4 °F 69% 30.04 in 10.0 mi WSW 4.6 mph - N/A   Overcast
12:36 PM 28.4 °F 23.3 °F 19.4 °F 69% 30.05 in 10.0 mi West 4.6 mph - N/A   Overcast
12:56 PM 30.2 °F - 19.4 °F 64% 30.04 in 10.0 mi Calm Calm - N/A   Overcast
1:16 PM 30.2 °F 26.7 °F 19.4 °F 64% 30.04 in 10.0 mi WSW 3.5 mph - N/A   Overcast
1:36 PM 30.2 °F 21.3 °F 21.2 °F 69% 30.03 in 10.0 mi SW 10.4 mph - N/A   Overcast
1:56 PM 30.2 °F 22.6 °F 21.2 °F 69% 30.03 in 10.0 mi SW 8.1 mph - N/A   Overcast
2:16 PM 30.2 °F 21.3 °F 23.0 °F 75% 30.03 in 10.0 mi WSW 10.4 mph - N/A   Overcast
2:36 PM 30.2 °F 21.9 °F 21.2 °F 69% 30.04 in 10.0 mi WSW 9.2 mph - N/A   Overcast
2:56 PM 30.2 °F 21.3 °F 21.2 °F 69% 30.03 in 10.0 mi WSW 10.4 mph - N/A   Overcast
3:16 PM 30.2 °F 22.6 °F 21.2 °F 69% 30.04 in 10.0 mi West 8.1 mph - N/A   Scattered Clouds
3:36 PM 30.2 °F 22.6 °F 19.4 °F 64% 30.04 in 10.0 mi West 8.1 mph - N/A   Clear
3:56 PM 30.2 °F 23.4 °F 21.2 °F 69% 30.05 in 10.0 mi SW 6.9 mph - N/A   Clear
4:16 PM 30.2 °F 22.6 °F 19.4 °F 64% 30.05 in 10.0 mi WSW 8.1 mph - N/A   Clear
4:36 PM 30.2 °F 23.4 °F 21.2 °F 69% 30.06 in 10.0 mi West 6.9 mph - N/A   Partly Cloudy
4:56 PM 30.2 °F 23.4 °F 19.4 °F 64% 30.06 in 10.0 mi WSW 6.9 mph - N/A   Partly Cloudy
5:16 PM 28.4 °F 20.4 °F 19.4 °F 69% 30.07 in 10.0 mi West 8.1 mph - N/A   Clear
5:36 PM 28.4 °F 19.1 °F 21.2 °F 74% 30.07 in 10.0 mi WSW 10.4 mph - N/A   Clear
5:56 PM 28.4 °F 19.7 °F 21.2 °F 74% 30.08 in 10.0 mi WSW 9.2 mph - N/A   Clear
6:16 PM 28.4 °F 22.2 °F 19.4 °F 69% 30.08 in 10.0 mi West 5.8 mph - N/A   Clear
6:36 PM 28.4 °F 23.3 °F 19.4 °F 69% 30.09 in 10.0 mi West 4.6 mph - N/A   Clear
6:56 PM 28.4 °F 24.6 °F 19.4 °F 69% 30.10 in 10.0 mi WSW 3.5 mph - N/A   Clear
7:16 PM 28.4 °F 20.4 °F 19.4 °F 69% 30.10 in 10.0 mi WSW 8.1 mph - N/A   Clear
7:36 PM 28.4 °F 22.2 °F 21.2 °F 74% 30.11 in 10.0 mi West 5.8 mph - N/A   Clear
7:56 PM 28.4 °F 22.2 °F 19.4 °F 69% 30.12 in 10.0 mi WSW 5.8 mph - N/A   Clear
8:16 PM 26.6 °F - 17.6 °F 69% 30.11 in 10.0 mi Calm Calm - N/A   Clear
8:36 PM 26.6 °F 20.0 °F 19.4 °F 74% 30.11 in 10.0 mi West 5.8 mph - N/A   Clear
8:56 PM 26.6 °F 18.2 °F 17.6 °F 69% 30.12 in 10.0 mi West 8.1 mph - N/A   Clear
9:16 PM 26.6 °F 19.1 °F 19.4 °F 74% 30.12 in 10.0 mi West 6.9 mph - N/A   Clear
9:36 PM 26.6 °F - 19.4 °F 74% 30.13 in 10.0 mi Calm Calm - N/A   Clear
9:56 PM 26.6 °F 17.5 °F 19.4 °F 74% 30.13 in 10.0 mi WSW 9.2 mph - N/A   Clear
10:16 PM 28.4 °F 22.2 °F 19.4 °F 69% 30.13 in 10.0 mi WSW 5.8 mph - N/A   Clear
10:36 PM 26.6 °F - 17.6 °F 69% 30.13 in 10.0 mi Calm Calm - N/A   Clear
10:56 PM 26.6 °F - 19.4 °F 74% 30.14 in 10.0 mi Calm Calm - N/A   Clear
11:16 PM 26.6 °F - 19.4 °F 74% 30.14 in 10.0 mi Calm Calm - N/A   Clear
11:36 PM 24.8 °F - 17.6 °F 74% 30.14 in 10.0 mi Calm Calm - N/A   Clear
11:56 PM 26.6 °F - 19.4 °F 74% 30.14 in 10.0 mi Calm Calm - N/A   Clear